Location: ???????
(55.8719°N, 38.1523°E)
Time: 06:17:01
(UTC+00:00)

SL-16 R/B - Pass Details

Date: 14 April 2024
Orbit: 841 x 845 km, 71.0° (Epoch: 22 May)

Event Time Altitude Azimuth Distance (km) Brightness Sun altitude
Exits shadow 00:35:47 10° 270° (W) 2,436 4.2 -13.9°
Maximum altitude 00:40:33 29° 329° (NNW) 1,523 3.6 -13.4°
Drops below altitude 10° 00:45:27 10° 28° (NNE) 2,479 5.8 -12.9°
Sets 00:48:15 0° 40° (NE) 3,417 7.2 -12.6°
